Patuxent River, MD

9:28 AM EDT on August 26, 2016 (GMT -0400)
Patuxent River Naval Air Station

Weather History for KNHK - February, 2013

Change the Weather History Date:

Tuesday, February 26, 2013

  Actual Average Record
Temperature  
Mean Temperature 39 °F -  
Max Temperature 51 °F 43 °F 43 °F (2016)
Min Temperature 27 °F 30 °F 19 °F (2015)
Degree Days  
Heating Degree Days 26    
Moisture  
Dew Point 36 °F    
Average Humidity 84    
Maximum Humidity 96    
Minimum Humidity 73    
Precipitation  
Precipitation 0.60 in - - ()
Sea Level Pressure  
Sea Level Pressure 29.97 in    
Wind  
Wind Speed 5 mph (ENE)    
Max Wind Speed 21 mph    
Max Gust Speed 32 mph    
Visibility 7 miles    
Events Rain    
Averages and records for this station are not official NWS values.
T = Trace of Precipitation, MM = Missing Value Source: NWS Daily Summary

Daily Weather History Graph

Daily Weather History Graph

Search for Another Location

Airport or City:

Trip Planner

Search our weather history database for the weather conditions in past years. The results will help you decide how hot, cold, wet, or windy it might be!

Date:

Astronomy

Feb. 26, 2013 Rise Set
Actual Time 6:41 AM EST 5:56 PM EST
Civil Twilight 6:14 AM EST 6:22 PM EST
Nautical Twilight 5:44 AM EST 6:53 PM EST
Astronomical Twilight 5:13 AM EST 7:23 PM EST
Moon 7:08 PM EST 6:44 AM EST
Length of Visible Light 12h 07m
Length of Day
11h 14m
Full, 99% of the Moon is Illuminated
Feb 26
Full
Mar 4
Last Quarter
Mar 11
New
Mar 19
First Quarter
Mar 27
Full

Hourly Weather History & Observations

Time (EST) Temp. Windchill Dew Point Humidity Pressure Visibility Wind Dir Wind Speed Gust Speed Precip Events Conditions
12:52 AM 27.0 °F - 23.0 °F 85% 30.22 in 10.0 mi Calm Calm - N/A   Clear
1:52 AM 27.0 °F - 23.0 °F 85% 30.22 in 10.0 mi Calm Calm - N/A   Clear
2:52 AM 28.0 °F - 23.0 °F 81% 30.22 in 10.0 mi Calm Calm - N/A   Clear
3:52 AM 30.0 °F - 26.1 °F 85% 30.19 in 10.0 mi Calm Calm - N/A   Clear
4:52 AM 28.9 °F - 25.0 °F 85% 30.18 in 7.0 mi Calm Calm - N/A   Clear
5:11 AM 30.2 °F - 26.6 °F 86% 30.18 in 7.0 mi Calm Calm - N/A   Overcast
5:52 AM 30.0 °F - 26.1 °F 85% 30.19 in 7.0 mi Calm Calm - N/A   Overcast
6:52 AM 33.1 °F 30.0 °F 28.0 °F 82% 30.18 in 10.0 mi ENE 3.5 mph - N/A   Overcast
7:52 AM 36.0 °F 30.3 °F 28.9 °F 76% 30.18 in 10.0 mi ENE 6.9 mph - N/A   Overcast
8:52 AM 37.9 °F 33.5 °F 30.0 °F 73% 30.19 in 8.0 mi East 5.8 mph - N/A   Overcast
9:52 AM 39.0 °F 32.8 °F 32.0 °F 76% 30.18 in 7.0 mi ENE 9.2 mph - N/A   Overcast
10:52 AM 39.9 °F 35.1 °F 33.1 °F 77% 30.14 in 8.0 mi ENE 6.9 mph - N/A   Overcast
11:11 AM 39.2 °F 35.0 °F 33.8 °F 81% 30.13 in 7.0 mi ENE 5.8 mph - 0.00 in Rain Light Rain
11:52 AM 42.1 °F 36.1 °F 35.1 °F 76% 30.11 in 10.0 mi ENE 10.4 mph - 0.00 in Rain Light Rain
12:52 PM 43.0 °F 39.5 °F 37.0 °F 80% 30.06 in 6.0 mi ENE 5.8 mph - 0.00 in Rain Light Rain
1:52 PM 44.1 °F 38.1 °F 37.9 °F 79% 30.01 in 6.0 mi ENE 11.5 mph 18.4 mph 0.01 in Rain Light Rain
2:52 PM 45.0 °F 37.9 °F 39.0 °F 80% 29.96 in 6.0 mi ENE 16.1 mph - 0.02 in Rain Light Rain
3:52 PM 45.0 °F 38.9 °F 41.0 °F 86% 29.92 in 10.0 mi ENE 12.7 mph 23.0 mph 0.03 in Rain Light Rain
4:52 PM 45.0 °F 36.9 °F 41.0 °F 86% 29.84 in 3.0 mi East 20.7 mph 32.2 mph 0.04 in Rain Light Rain
5:52 PM 45.0 °F 37.1 °F 42.1 °F 90% 29.80 in 2.0 mi East 19.6 mph 26.5 mph 0.04 in Rain Rain
6:52 PM 46.0 °F 38.5 °F 43.0 °F 89% 29.75 in 4.0 mi East 19.6 mph - 0.06 in Rain Light Rain
7:52 PM 46.0 °F 39.0 °F 44.1 °F 93% 29.70 in 6.0 mi East 17.3 mph - 0.08 in Rain Light Rain
8:52 PM 48.0 °F - 45.0 °F 89% 29.66 in 3.0 mi East 17.3 mph 26.5 mph 0.13 in Rain Heavy Rain
9:52 PM 48.0 °F - 46.0 °F 93% 29.64 in 3.0 mi East 8.1 mph - 0.18 in Rain Heavy Rain
10:38 PM 50.0 °F - 48.2 °F 94% 29.60 in 9.0 mi East 8.1 mph - 0.00 in   Overcast
10:52 PM 51.1 °F - 48.0 °F 89% 29.60 in 9.0 mi ESE 8.1 mph - 0.00 in   Overcast
11:31 PM 51.8 °F - 48.2 °F 88% 29.57 in 10.0 mi ESE 5.8 mph - N/A   Overcast
11:52 PM 50.0 °F - 48.9 °F 96% 29.57 in 5.0 mi Calm Calm - 0.01 in Rain Light Rain